Sioux City, IA

2:29 AM CST on December 13, 2019 (GMT -0600)
Sioux Gateway

Weather History for KSUX - October, 2019

Change the Weather History Date:

Thursday, October 31, 2019

  Actual Average Record
Temperature  
Mean Temperature 30 °F 44 °F  
Max Temperature 44 °F 56 °F 81 °F (1944)
Min Temperature 17 °F 33 °F 12 °F (1993)
Degree Days  
Heating Degree Days 34 21  
Month to date heating degree days 607 453  
Since 1 July heating degree days 643 600  
Cooling Degree Days 0 0  
Month to date cooling degree days 0 8  
Year to date cooling degree days 910 869  
Moisture  
Dew Point 13 °F    
Average Humidity 55    
Maximum Humidity 81    
Minimum Humidity 22    
Precipitation  
Precipitation 0.00 in 0.04 in 1.18 in (1892)
Month to date precipitation 2.40 2.13  
Year to date precipitation 30.51 25.63  
Snow  
Snow 0.00 in 0.10 in 8.80 in (1991)
Month to date snowfall T 1.0  
Since 1 July snowfall T 1.0  
Since 1 September snowfall T 1.0  
Snow Depth 0.00 in    
Sea Level Pressure  
Sea Level Pressure 30.19 in    
Wind  
Wind Speed 6 mph ()    
Max Wind Speed 16 mph    
Max Gust Speed 21 mph    
Visibility 10.0 miles    
Events      
T = Trace of Precipitation, MM = Missing Value Source: Averaged Metar Reports

Daily Weather History Graph

Daily Weather History Graph

Search for Another Location

Airport or City:

Astronomy

Oct. 31, 2019 Rise Set
Actual Time 7:57 AM CDT 6:20 PM CDT
Civil Twilight 7:28 AM CDT 6:49 PM CDT
Nautical Twilight 6:55 AM CDT 7:22 PM CDT
Astronomical Twilight 6:22 AM CDT 7:55 PM CDT
Moon 11:50 AM CDT (10/31) 9:13 PM CDT (10/31)
Length of Visible Light 11h 21m
Length of Day
10h 22m
Waxing Crescent, 16% of the Moon is Illuminated
Oct 31
Waxing Crescent
Nov 4
First Quarter
Nov 12
Full
Nov 19
Last Quarter
Nov 26
New

Hourly Weather History & Observations

Time (CDT) Temp. Windchill Dew Point Humidity Pressure Visibility Wind Dir Wind Speed Gust Speed Precip Events Conditions
12:52 AM 21.0 °F 13.4 °F 12.9 °F 71% 30.29 in 10.0 mi WNW 5.8 mph - N/A   Clear
1:52 AM 19.9 °F 12.1 °F 12.9 °F 74% 30.28 in 10.0 mi WNW 5.8 mph - N/A   Clear
2:52 AM 19.9 °F 12.1 °F 12.9 °F 74% 30.27 in 10.0 mi WNW 5.8 mph - N/A   Clear
3:52 AM 19.0 °F 10.0 °F 12.9 °F 77% 30.26 in 10.0 mi WNW 6.9 mph - N/A   Clear
4:52 AM 19.0 °F 10.0 °F 12.9 °F 77% 30.25 in 10.0 mi WNW 6.9 mph - N/A   Clear
5:52 AM 18.0 °F 8.7 °F 12.9 °F 81% 30.25 in 10.0 mi WNW 6.9 mph - N/A   Clear
6:52 AM 18.0 °F 11.1 °F 12.9 °F 81% 30.24 in 10.0 mi WNW 4.6 mph - N/A   Clear
7:52 AM 18.0 °F 8.7 °F 12.9 °F 81% 30.25 in 10.0 mi WNW 6.9 mph - N/A   Clear
8:52 AM 19.9 °F 11.1 °F 12.9 °F 74% 30.25 in 10.0 mi WNW 6.9 mph - N/A   Clear
9:52 AM 25.0 °F 17.1 °F 16.0 °F 69% 30.24 in 10.0 mi WNW 6.9 mph - N/A   Clear
10:52 AM 30.0 °F 22.4 °F 17.1 °F 59% 30.23 in 10.0 mi NW 8.1 mph - N/A   Clear
11:52 AM 35.1 °F 28.6 °F 16.0 °F 46% 30.22 in 10.0 mi WNW 8.1 mph - N/A   Clear
12:52 PM 39.9 °F 32.9 °F 12.9 °F 33% 30.19 in 10.0 mi West 11.5 mph - N/A   Clear
1:52 PM 43.0 °F 36.8 °F 10.9 °F 27% 30.17 in 10.0 mi WNW 11.5 mph 18.4 mph N/A   Clear
2:52 PM 43.0 °F 38.2 °F 9.0 °F 25% 30.14 in 10.0 mi WNW 8.1 mph 19.6 mph N/A   Clear
3:52 PM 44.1 °F 37.7 °F 9.0 °F 24% 30.14 in 10.0 mi West 12.7 mph - N/A   Clear
4:52 PM 44.1 °F 37.4 °F 8.1 °F 23% 30.13 in 10.0 mi West 13.8 mph - N/A   Clear
5:52 PM 41.0 °F 35.8 °F 10.0 °F 28% 30.12 in 10.0 mi WSW 8.1 mph - N/A   Clear
6:52 PM 34.0 °F 28.8 °F 9.0 °F 35% 30.13 in 10.0 mi SSW 5.8 mph - N/A   Clear
7:52 PM 30.0 °F 23.2 °F 10.9 °F 45% 30.14 in 10.0 mi SSW 6.9 mph - N/A   Clear
9:52 PM 30.0 °F 23.2 °F 14.0 °F 51% 30.11 in 10.0 mi SSW 6.9 mph - N/A   Clear
10:52 PM 32.0 °F 26.4 °F 16.0 °F 52% 30.09 in 10.0 mi SSW 5.8 mph - N/A   Clear
11:52 PM 33.1 °F 26.9 °F 18.0 °F 54% 30.08 in 10.0 mi SW 6.9 mph - N/A   Partly Cloudy